Погода в Агаповке

Россия / Челябинская область     53°18′10″N   59°08′26″E
темп.,
°C
ветер,
м/с
пор.,
м/с
влажн.,
%
обл.,
%
осадки,
мм/ч
давл.,
гПа
погр.,
м
23 июня, ср
ср2323:00+22сз5116796 0.0 1018347
02:00+19зсз4128052 0.0 1017244
05:00+19зсз49805 0.0 1016168
08:00+24зсз610638 0.1 1014531
11:00+29сз8113940 0.1 10132792
14:00+26ссв8105290 0.1 10131510
17:00+19ссв7877100 0.9 1017763
20:00+17всв3479100 3.6 1018572
24 июня, чт
чт2423:00+16ссв2383100 3.9 1018185
02:00+16с1285100 0.0 101994
05:00+13св22920 0.0 101919
08:00+17св22685 0.0 1019371
11:00+21всв22395 0.0 10191334
14:00+24с12305 0.0 10191768
17:00+25зсз122751 0.0 10181892
20:00+23ююз224064 0.0 101727
25 июня, пт
пт2523:00+18ю22445 0.0 101711
02:00+16ююз22475 0.0 101621
05:00+15з11665 0.0 101611
08:00+20зсз23550 0.0 1015247
11:00+25зсз333736 0.0 10141047
14:00+28сз34395 0.0 10131929
17:00+29сз2438100 0.0 10112511
20:00+23ююв236639 0.1 101297
26 июня, сб
сб2623:00+20зсз228062 0.8 101122
02:00+19сз228410 0.0 101128
05:00+18зсз22887 0.0 101015
08:00+22зсз23735 0.0 1010282
11:00+27ссз345146 0.0 10091364
14:00+30с464046 0.0 10082529
17:00+27зсз335524 0.0 100889
20:00+22ююв127971 1.7 100961
27 июня, вс
вс2723:00+20ссз128771 2.6 101028
02:00+19ссз11895 0.1 101011
05:00+18с22874 0.1 101018
08:00+23с34685 0.0 1011355
11:00+26св45535 0.0 10111373
14:00+29ссв343942 0.0 10112345
17:00+29всв343528 0.0 10102425
20:00+24всв585945 0.0 1012380